NOAA NWS Hourly Roundups by Site

Regional Weather Roundup for Phoenix, AZ

To Select Another Site Choose from List

Select Site:  

000
ASUS45 KPSR 101510
RWRAZ

ARIZONA HOURLY REGIONAL WEATHER ROUNDUP
NATIONAL WEATHER SERVICE PHOENIX AZ
800 AM MST MON DEC 10 2018

NOTE: FAIR INDICATES FEW OR NO CLOUDS BELOW 12,000 FEET WITH NO
SIGNIFICANT WEATHER AND/OR OBSTRUCTIONS TO VISIBILITY.

AZZ001>003-036-101600-
NORTHWEST ARIZONA

CITY           SKY/WX    TMP DP  RH WIND       PRES   REMARKS
BULLHEAD CITY  MOCLDY    55  34  44 N16       30.20
KINGMAN        MOCLDY    38  30  73 E3        30.23F
$$

AZZ004>008-015-016-018-101600-
NORTH CENTRAL ARIZONA

CITY           SKY/WX    TMP DP  RH WIND       PRES   REMARKS
GRAND CANYON   PTCLDY    31  25  78 NE3       30.33R
WILLIAMS       PTCLDY    32  19  59 SE14      30.28  WCI  22
PRESCOTT       MOCLDY    29  23  78 S3        30.29R
FLAGSTAFF      CLEAR     19  16  88 CALM      30.35S
PAYSON         PTCLDY    39  21  48 CALM      30.30
PAGE           MOCLDY    33  29  85 W5        30.39R WCI  29
$$

AZZ009>014-017-101600-
NORTHEAST ARIZONA

CITY           SKY/WX    TMP DP  RH WIND       PRES   REMARKS
WINSLOW        MOCLDY    25  21  85 E7        30.39R WCI  17
SAINT JOHNS    PTCLDY    20  16  84 S3        30.35F
WINDOW ROCK    CLEAR     16  13  88 S3        30.39S
SHOW LOW       PTCLDY    21  19  93 S3        30.36S
$$

AZZ540-542>544-546-548-101600-
GREATER PHOENIX AREA

CITY           SKY/WX    TMP DP  RH WIND       PRES   REMARKS
PHOENIX        CLOUDY    55  32  41 E6        30.15R
BUCKEYE        CLOUDY    45  39  81 NW6       30.16F
LUKE AFB       CLOUDY    47  40  77 CALM      30.15S
DEER VALLEY    MOCLDY    51  29  42 N6        30.17R
SCOTTSDALE     MOCLDY    51  30  44 CALM      30.18R
MESA-FALCON    MOCLDY    56  28  34 NE9       30.17R
MESA-GATEWAY   PTCLDY    45  34  65 E5        30.18R
CHANDLER       CLEAR     45  37  76 CALM      30.17R
$$

AZZ539-553-101600-
SOUTHWEST MARICOPA COUNTY AND PINAL COUNTY

CITY           SKY/WX    TMP DP  RH WIND       PRES   REMARKS
CASA GRANDE    NOT AVBL
GILA BEND      MOCLDY    50  39  66 E7        30.13R
$$

AZZ503-504-507>509-101600-
SOUTHEAST ARIZONA

CITY           SKY/WX    TMP DP  RH WIND       PRES   REMARKS
TUCSON         MOCLDY    55  34  45 E20G32    30.18S
DAVIS-MONTHAN  CLOUDY    51  36  56 SE14      30.17
RYAN FIELD     CLEAR     54  36  50 E14       30.18R
NOGALES        MOCLDY    41  31  67 NE5       30.21R
SIERRA VISTA   PTCLDY    38  33  82 NE5       30.27S WCI  34
DOUGLAS        PTCLDY    31  30  96 NW5       30.28R WCI  26
SAFFORD        CLEAR     43  24  47 SE16      30.32R
$$

AZZ532-101600-
SOUTHWEST ARIZONA

CITY           SKY/WX    TMP DP  RH WIND       PRES   REMARKS
YUMA           CLOUDY    54  45  71 N6        30.13S
$$

CAZ041-043-047-048-061-525>527-560>570-101600-
SOUTHERN CALIFORNIA

CITY           SKY/WX    TMP DP  RH WIND       PRES   REMARKS
DOWNTOWN L.A.  CLOUDY    57  43  59 N3        30.09R
L.A. AIRPORT   CLOUDY    59  42  53 N6        30.10S
SAN DIEGO      CLOUDY    56  50  80 N6        30.11R
BURBANK        CLOUDY    54  43  66 N3        30.10R
ONTARIO        CLOUDY    51  42  71 E7        30.10F
RIVERSIDE      CLOUDY    51  42  71 CALM      30.11S
PALM SPRINGS   CLOUDY    56  41  57 NW3       30.17S
EL CENTRO NAS  CLOUDY    51  46  83 W7        30.16S
IMPERIAL       CLOUDY    51  48  89 W5        30.14R
NEEDLES        MOCLDY    51  38  60 CALM      30.20R
$$

NVZ020-UTZ003-101600-
SOUTHERN NEVADA-UTAH

CITY           SKY/WX    TMP DP  RH WIND       PRES   REMARKS
LAS VEGAS      CLOUDY    46  34  62 S5        30.22S
SALT LAKE CITY MOCLDY    31  25  78 CALM      30.31F HAZE
$$

NMZ009-TXZ055-101600-
NEW MEXICO-WEST TEXAS

CITY           SKY/WX    TMP DP  RH WIND       PRES   REMARKS
ALBUQUERQUE    PTCLDY    29  23  78 N5        30.41F WCI  24
EL PASO        MOSUNNY   40  29  64 N12       30.37R WCI  33
$$


........................KEY........................
SKY/WX - SKY CONDITION/WEATHER
TMP    - TEMPERATURE IN FAHRENHEIT
DP     - DEW POINT IN FAHRENHEIT
RH     - RELATIVE HUMIDITY IN PERCENT
WIND   - DIRECTION AND SPEED IN MILES PER HOUR (MPH)
VRB    - VARIABLE WIND DIRECTION
PRES   - MEAN SEA LEVEL PRESSURE IN INCHES OF MERCURY
         F - FALLING PRESSURE   R - RISING PRESSURE
         S - STEADY PRESSURE
VSB    - VISIBILITY IN MILES
HX     - HEAT INDEX IN FAHRENHEIT
WCI    - WIND CHILL INDEX IN FAHRENHEIT
TC     - TEMPERATURE IN CELSIUS WHICH IS ALSO KNOWN AS
         TEMPERATURE IN CENTIGRADE
AFB    - AIR FORCE BASE
         LUKE AFB IS LUKE AIR FORCE BASE
         DAVIS-MONTHAN IS DAVIS-MONTHAN AIR FORCE BASE
NAS    - NAVAL AIR STATION
         EL CENTRO NAS IS EL CENTRO NAVAL AIR STATION
N/A    - NOT AVAILABLE



 

View Past Reports for Phoenix, AZ.

Products Courtesy of NOAA-NWS
NWS Information Parsing Script by Ken True at Saratoga Weather - Script by SE Lincoln Weather.